Lapse_Rate
5.6 5.6 5.5 5.6 5.7 5.6 5.5 5.6 5.6 5.5 5.6 5.5 5.7 5.8 6.0 6.2 6.3 6.4 6.3 6.4 6.4 6.2 6.3 6.3 6.4 6.3 6.3 6.5 6.5 6.3 6.1 6.0 6.0 6.1 6.2 6.2 6.1 6.1 6.2 6.4 6.3 6.4 6.4 6.4 6.0 5.7 5.7 5.9 5.7 5.5 5.6 5.7 6.1 6.2
5.7 5.5 5.5 5.7 5.7 5.6 5.6 5.6 5.5 5.5 5.5 5.6 5.6 5.7 5.9 6.1 6.2 6.2 6.3 6.3 6.3 6.2 6.1 6.0 6.1 6.2 6.3 6.3 6.0 5.8 5.6 5.6 5.6 5.9 5.9 6.0 6.2 6.2 6.2 6.3 6.2 6.1 6.3 6.1 5.9 5.8 5.8 5.9 5.9 5.7 5.8 6.1 6.1 6.2
5.8 5.5 5.6 5.7 5.7 5.7 5.7 5.7 5.6 5.5 5.4 5.5 5.6 5.6 5.8 5.9 6.0 6.0 6.2 6.3 6.3 6.2 6.1 5.9 6.0 6.1 5.9 5.9 5.7 5.5 5.5 5.3 5.4 5.6 5.7 5.8 5.9 6.2 6.2 6.2 6.2 6.1 6.0 5.8 5.7 5.8 5.8 5.7 5.7 5.6 5.9 6.2 6.1 6.1
5.9 5.8 5.6 5.7 5.7 5.8 5.8 5.8 5.7 5.5 5.4 5.4 5.6 5.6 5.6 5.7 5.9 5.9 6.1 6.2 6.2 6.1 6.1 6.0 5.6 5.5 5.7 5.7 5.6 5.4 5.4 5.5 5.6 5.6 5.7 5.6 5.7 5.9 6.0 6.0 5.9 5.9 5.8 5.6 5.5 5.5 5.5 5.5 5.4 5.5 5.8 5.9 6.1 5.9
5.8 5.8 5.6 5.6 5.6 5.7 5.7 5.8 5.8 5.7 5.6 5.4 5.4 5.5 5.4 5.5 5.6 5.8 5.9 6.1 6.1 6.1 5.9 5.9 5.6 5.4 5.4 5.5 5.5 5.6 5.7 5.7 5.7 5.8 5.7 5.4 5.4 5.6 5.7 5.6 5.7 5.6 5.5 5.3 5.3 5.3 5.2 5.3 5.4 5.7 5.8 6.0 6.1 6.4
5.3 5.6 5.6 5.4 5.4 5.5 5.6 5.7 5.7 5.7 5.6 5.5 5.3 5.4 5.5 5.4 5.5 5.6 5.7 6.0 6.1 6.0 6.0 5.8 5.8 5.6 5.5 5.5 5.5 5.6 5.8 5.7 5.7 5.7 5.6 5.4 5.4 5.3 5.4 5.5 5.8 5.6 5.4 5.4 5.4 5.3 5.3 5.4 5.6 5.7 6.1 6.2 6.2 6.1
4.8 5.0 5.1 5.0 5.1 5.3 5.3 5.4 5.5 5.6 5.6 5.6 5.4 5.4 5.6 5.4 5.4 5.4 5.5 5.7 5.8 5.9 5.9 5.9 5.9 5.7 5.6 5.5 5.5 5.7 5.8 5.8 5.7 5.7 5.7 5.6 5.4 5.3 5.4 5.7 5.9 5.6 5.6 5.7 5.7 5.6 5.6 5.8 6.0 6.1 6.2 6.3 6.3 6.2
4.4 4.5 4.5 4.6 4.7 4.8 5.0 5.0 5.1 5.2 5.3 5.3 5.3 5.4 5.5 5.4 5.4 5.4 5.3 5.4 5.5 5.6 5.7 6.0 6.0 5.8 5.6 5.4 5.4 5.5 5.5 5.5 5.4 5.5 5.7 5.6 5.5 5.5 5.8 6.2 5.9 5.8 6.0 6.0 5.8 5.8 5.9 6.0 6.1 6.2 6.3 6.4 6.4 6.1
4.4 4.2 4.2 4.1 4.2 4.3 4.5 4.7 4.7 4.7 4.7 4.8 4.9 5.0 5.0 5.0 5.1 5.1 5.1 5.1 5.2 5.3 5.4 5.8 5.9 5.9 5.7 5.5 5.3 5.2 5.1 5.1 5.2 5.3 5.3 5.3 5.5 5.9 6.0 5.7 5.6 5.6 5.7 5.8 5.7 5.8 6.2 6.2 6.2 6.2 6.5 6.5 6.3 6.2
4.3 4.2 4.2 4.2 4.2 4.1 4.2 4.4 4.4 4.5 4.5 4.5 4.5 4.5 4.5 4.6 4.6 4.6 4.6 4.6 4.8 4.9 5.1 5.4 5.4 5.5 5.6 5.5 5.2 5.0 5.0 5.0 4.9 5.2 5.2 5.4 6.2 5.8 5.6 5.7 5.4 5.4 5.5 5.5 5.4 5.5 6.1 6.4 6.5 6.5 6.4 6.4 6.3 6.3
4.0 4.2 4.2 3.9 4.1 4.0 4.0 4.1 4.3 4.5 4.4 4.4 4.4 4.2 4.3 4.3 4.2 4.2 4.3 4.4 4.6 4.7 5.0 5.0 4.8 4.9 5.1 5.1 5.0 4.9 4.8 4.8 4.8 5.1 5.1 5.4 6.3 5.5 5.3 5.5 5.7 5.7 5.6 5.4 5.2 5.4 6.1 6.2 6.4 6.5 6.5 6.5 6.4 6.3
4.1 4.2 4.2 4.2 4.1 3.9 3.9 4.0 4.2 4.4 4.3 4.3 4.1 4.0 4.0 3.9 4.0 4.2 4.2 4.4 4.5 4.5 4.5 4.5 4.6 4.7 4.7 4.9 4.8 4.8 4.8 4.8 4.9 5.0 4.9 5.4 5.5 5.2 5.1 5.2 5.2 5.4 5.4 5.5 5.5 5.9 6.0 6.2 6.4 6.3 6.5 6.4 6.3 6.3
4.5 4.1 4.2 4.3 4.2 4.1 3.9 4.1 4.2 4.3 4.2 4.0 3.8 3.8 3.9 4.0 4.0 4.1 4.2 4.2 4.3 4.3 4.4 4.5 4.6 4.8 4.7 4.6 4.6 4.7 4.8 4.7 4.9 4.8 5.2 5.3 5.1 5.2 5.2 5.1 5.2 5.4 5.5 5.7 5.9 6.1 6.1 6.3 6.4 6.3 6.4 6.5 6.4 6.3
5.0 4.2 3.8 3.9 4.2 4.2 4.2 4.2 4.2 4.0 4.0 3.8 3.7 3.9 4.2 4.1 4.1 4.1 4.1 4.2 4.4 4.4 4.5 4.5 4.5 4.5 4.5 4.6 4.7 4.7 4.8 4.8 4.8 5.1 5.3 5.3 5.3 5.4 5.4 5.3 5.3 5.4 5.5 5.6 5.9 6.2 6.3 6.5 6.3 6.3 6.3 6.4 6.4 6.2
5.1 4.7 4.1 4.1 4.3 4.2 4.2 4.2 4.0 3.9 3.8 3.8 4.0 4.1 4.2 4.3 4.2 4.1 4.1 4.2 4.4 4.5 4.6 4.5 4.5 4.5 4.6 4.8 4.8 4.7 4.9 4.9 5.1 5.4 5.3 5.4 5.6 5.6 5.6 5.6 5.6 5.5 5.5 5.6 6.0 6.2 6.2 6.3 6.4 6.3 6.3 6.3 6.3 6.3
5.2 5.0 4.8 4.5 4.3 4.4 4.2 4.0 3.9 3.7 3.7 3.9 4.0 4.2 4.3 4.3 4.2 4.2 4.3 4.5 4.5 4.6 4.6 4.6 4.7 4.6 4.6 4.6 4.8 4.9 4.8 5.2 5.6 5.7 5.5 5.7 5.9 5.8 5.7 5.6 5.7 6.0 6.1 6.0 6.0 6.1 6.1 6.3 6.5 6.4 6.1 6.2 6.2 6.2
5.5 5.5 4.9 4.7 4.6 4.4 4.2 4.2 3.8 3.8 3.8 3.9 4.3 4.4 4.5 4.5 4.3 4.4 4.4 4.5 4.6 4.7 4.7 4.6 4.6 4.8 4.9 4.7 4.7 5.0 5.3 5.6 5.6 5.7 5.6 5.7 5.7 5.8 5.8 5.8 5.5 5.7 5.9 6.1 6.0 5.9 6.1 6.4 6.6 6.3 6.2 6.0 6.2 6.2
6.3 5.5 4.9 4.9 4.6 4.2 4.3 4.1 4.3 4.1 4.2 4.4 4.4 4.5 4.5 4.5 4.4 4.4 4.4 4.6 4.7 4.7 4.8 4.8 4.7 4.7 4.8 5.0 5.3 5.3 5.4 5.3 5.3 5.3 5.3 5.4 5.5 5.6 5.8 5.9 5.9 6.0 5.7 5.8 5.9 5.8 6.0 6.2 6.4 6.3 6.2 6.1 6.0 6.1
5.4 5.5 5.5 5.0 4.5 4.9 4.6 4.3 4.5 4.6 4.8 4.7 4.6 4.6 4.7 4.7 4.7 4.6 4.6 4.5 4.6 4.6 4.6 4.7 4.7 4.8 5.3 5.3 5.2 5.1 5.1 5.2 5.2 5.2 5.4 5.3 5.6 5.9 5.7 5.9 6.1 6.0 5.8 5.7 5.9 5.8 5.7 5.8 5.8 6.1 6.2 6.0 5.7 5.8
5.2 5.2 5.3 5.5 4.9 4.7 5.0 4.7 4.9 4.7 4.8 5.0 4.9 5.0 4.9 4.9 4.9 4.9 4.9 4.8 4.8 4.7 4.7 4.9 5.4 5.3 5.1 5.0 4.8 4.8 4.7 4.7 4.9 5.4 5.4 5.3 5.5 6.1 6.3 6.3 6.4 6.0 5.9 6.1 5.8 5.8 5.7 5.7 5.7 5.8 6.1 5.9 5.8 5.6
5.4 5.2 5.5 5.0 5.1 5.4 5.0 5.1 5.3 5.2 5.2 5.1 5.1 5.1 5.1 5.1 5.2 5.3 5.2 5.1 5.2 5.4 5.5 5.5 5.4 5.3 5.0 4.9 4.8 4.7 4.6 4.9 4.7 5.0 5.6 5.8 5.7 6.0 6.3 6.3 6.2 6.2 6.0 6.2 6.0 5.8 5.8 5.6 5.6 5.8 6.0 5.8 5.9 5.6
5.5 5.7 5.9 5.8 5.6 5.5 5.4 5.4 5.2 5.3 5.1 5.1 5.3 5.4 5.5 5.5 5.4 5.3 5.3 5.2 5.4 5.4 5.0 5.4 5.5 5.3 5.2 5.1 4.9 4.4 4.5 4.6 4.8 4.9 5.1 5.4 5.9 6.2 6.1 6.2 6.4 6.3 6.2 5.9 5.8 5.7 5.8 5.9 5.9 6.1 6.1 6.0 6.1 5.9
5.2 5.5 5.7 5.8 5.9 5.9 5.7 5.8 5.8 5.6 5.2 5.5 5.5 5.4 5.4 5.5 5.4 5.3 5.3 5.5 5.3 5.1 5.1 5.2 5.4 5.3 5.5 5.3 5.1 5.1 5.0 5.0 5.0 5.1 5.1 5.4 5.7 5.9 6.1 6.5 6.4 6.3 6.3 6.3 6.0 5.8 5.9 6.0 6.2 6.1 6.2 6.1 6.1 5.9
5.5 5.8 5.6 5.9 5.9 6.3 6.3 6.1 6.1 5.9 5.6 5.5 5.4 5.4 5.4 5.4 5.4 5.2 5.3 5.0 4.8 4.9 5.1 5.4 5.6 5.7 5.7 5.7 5.6 5.3 5.1 5.0 5.3 5.4 5.4 5.1 5.3 5.8 5.8 6.0 5.8 6.0 6.4 6.4 6.3 6.2 6.2 6.2 6.2 6.3 6.0 6.1 6.1 6.1
6.0 6.0 5.9 6.0 6.1 6.4 6.4 6.4 6.3 6.1 5.9 5.8 5.9 5.6 5.4 5.2 5.0 4.9 5.1 5.1 5.3 5.5 5.5 5.6 5.7 5.7 5.9 5.9 5.9 5.9 5.9 6.0 5.8 5.8 5.6 5.2 5.3 5.6 5.7 6.0 5.9 6.2 6.3 6.3 6.7 6.7 6.9 6.6 6.5 6.3 6.1 5.9 6.0 6.0
5.9 6.1 6.2 6.3 6.2 6.4 6.4 6.4 6.2 6.0 5.8 5.5 5.4 5.3 5.2 5.1 5.2 5.5 5.4 5.5 5.7 5.7 5.6 5.7 5.7 6.0 6.0 6.0 6.1 6.0 6.1 6.2 6.4 6.5 6.2 5.7 5.9 6.0 6.1 6.2 6.4 6.5 6.3 6.3 6.4 6.5 6.4 6.4 6.5 6.4 6.5 6.3 5.9 6.1
6.3 6.5 6.6 6.5 6.3 6.2 6.0 5.9 5.8 5.6 5.7 5.6 5.6 5.5 5.6 5.5 5.7 5.8 5.8 5.9 6.1 5.9 6.0 5.9 5.7 5.7 5.9 6.1 6.1 6.1 6.1 6.4 6.4 6.4 6.4 6.4 6.3 6.3 6.4 6.5 6.6 6.7 6.4 6.4 6.3 6.4 6.5 6.5 6.5 6.3 6.3 6.2 6.0 5.8
6.7 6.7 6.6 6.4 6.3 6.0 5.6 5.6 5.8 5.7 5.6 5.7 5.7 5.7 5.7 6.0 6.1 6.1 6.0 6.0 5.8 5.8 5.9 5.8 5.8 5.8 5.8 5.9 6.1 6.2 6.3 6.3 6.3 6.2 6.3 6.3 6.2 6.2 6.3 6.4 6.4 6.2 6.3 6.3 6.1 6.3 6.5 6.5 6.6 6.5 6.3 6.1 6.0 5.8
6.7 6.6 6.6 6.4 6.2 6.2 6.1 5.9 5.8 5.7 5.6 5.4 5.6 5.9 6.2 6.3 6.3 6.2 6.2 6.1 6.1 6.2 6.1 5.9 6.0 5.9 6.1 6.2 6.2 6.2 6.3 6.4 6.4 6.3 6.4 6.4 6.5 6.2 6.2 6.1 6.2 6.3 6.4 6.3 6.4 6.4 6.5 6.6 6.6 6.4 6.2 6.2 6.1 5.9
6.3 6.3 6.3 6.1 6.1 6.1 6.0 5.7 5.7 5.6 5.7 5.7 5.9 6.1 6.1 6.1 6.0 5.9 5.9 6.0 6.1 6.0 6.0 6.0 6.1 6.1 6.2 6.3 6.4 6.3 6.3 6.5 6.4 6.5 6.5 6.3 6.3 6.4 6.3 6.3 6.3 6.2 6.3 6.2 6.3 6.5 6.7 6.7 6.6 6.5 6.5 6.4 6.2 6.2
6.0 6.0 5.9 5.9 6.0 5.9 5.8 5.9 5.9 5.9 5.8 5.8 5.7 5.8 6.0 6.0 6.1 5.9 6.0 5.9 5.9 6.1 6.3 6.3 6.2 6.2 6.3 6.4 6.4 6.5 6.7 6.6 6.5 6.6 6.6 6.6 6.4 6.4 6.5 6.3 6.0 5.8 5.9 6.3 6.3 6.2 6.3 6.5 6.4 6.5 6.6 6.4 6.3 6.2
5.8 5.8 5.7 5.7 5.7 5.8 5.9 5.9 5.8 5.7 5.8 5.8 5.9 5.9 6.0 6.0 6.0 6.0 6.0 6.2 6.3 6.2 6.1 6.1 6.1 6.3 6.3 6.2 6.3 6.3 6.5 6.7 6.8 6.8 6.8 6.7 6.5 6.5 6.5 6.5 6.6 6.5 6.1 6.0 6.2 6.1 6.1 6.3 6.2 6.2 6.4 6.3 6.1 6.0
5.7 5.6 5.5 5.7 5.8 5.6 5.6 5.6 5.9 6.1 6.2 6.2 6.1 6.2 6.1 6.1 6.0 5.9 6.0 6.0 6.2 6.3 6.1 5.9 5.9 6.1 6.2 6.3 6.4 6.4 6.5 6.7 6.9 7.0 7.1 6.9 6.8 7.0 6.9 6.9 6.8 6.8 6.9 6.8 6.8 6.5 6.1 6.2 6.3 6.0 6.0 6.1 6.0 5.9
Wind_Speed
9 10 12 13 13 14 13 13 12 13 14 16 16 17 19 21 22 6 3 3 2 1 5 2 2 2 1 2 3 3 3 3 4 4 2 2 2 1 4 1 3 4 5 2 2 2 6 4 2 6 4 2 1 2
9 10 12 13 13 12 13 13 12 12 13 15 15 16 17 19 20 14 2 2 2 3 4 2 5 4 3 6 5 1 4 3 4 4 1 2 1 2 3 3 2 1 5 5 7 5 2 2 3 2 3 2 1 2
12 12 12 13 13 13 13 13 12 11 12 13 14 15 15 17 16 12 2 3 2 3 4 3 2 5 1 4 3 3 2 3 2 3 4 2 2 3 3 3 3 0 3 3 3 3 4 4 1 2 2 1 3 3
12 12 13 13 13 13 13 13 12 11 12 12 14 14 14 16 17 13 1 2 2 2 2 5 3 3 5 1 2 2 5 4 5 2 2 2 2 2 3 2 3 4 4 5 0 1 2 3 4 3 2 1 4 5
12 12 13 13 13 13 13 12 11 10 11 12 14 14 14 15 18 7 2 1 1 3 2 4 6 3 5 1 6 5 5 3 2 2 2 1 2 3 1 2 2 5 6 5 5 7 4 3 6 5 3 1 4 5
11 13 14 14 14 13 13 12 10 10 11 12 13 14 14 14 17 2 2 1 4 2 2 3 3 4 3 3 6 5 2 3 3 3 2 2 2 3 3 2 4 3 3 5 4 5 3 5 7 4 3 3 3 4
11 12 12 12 12 11 11 10 9 9 11 12 14 15 15 12 2 2 3 2 3 1 2 4 5 3 3 3 3 3 3 2 3 2 0 2 1 3 3 3 5 7 6 4 7 8 4 4 5 6 4 3 3 2
11 12 11 10 8 8 8 8 8 9 11 13 15 17 18 14 4 2 2 3 9 3 2 1 4 3 5 1 1 2 2 3 4 1 1 1 1 1 2 6 1 5 6 6 7 2 4 7 7 5 3 2 3 5
11 11 10 9 7 7 7 7 7 9 12 14 17 17 2 2 1 2 3 5 3 3 1 1 2 3 4 1 0 3 2 1 2 0 2 3 0 4 7 6 7 8 9 8 6 6 7 7 7 6 5 3 3 3
10 10 10 9 8 7 6 6 7 10 13 12 3 2 2 1 7 1 3 2 3 3 2 2 1 2 2 2 2 1 2 1 0 3 1 2 4 5 7 8 8 10 9 12 7 5 4 3 6 7 6 4 3 2
10 10 10 9 7 6 4 4 6 10 3 3 3 1 3 10 2 2 1 1 1 1 2 3 4 1 2 2 3 0 2 0 1 4 2 2 3 5 4 6 6 8 10 11 5 7 8 7 8 6 5 6 5 4
10 10 10 8 6 5 4 3 4 2 1 2 2 2 3 3 3 1 2 2 2 3 2 3 4 4 2 2 3 1 2 2 4 0 2 3 4 5 4 3 6 8 9 8 5 8 8 8 7 6 6 6 6 5
10 11 11 10 7 5 5 2 1 1 1 1 2 2 3 1 3 3 4 2 2 2 2 2 1 2 2 3 3 2 2 4 1 1 3 4 4 5 5 2 6 6 7 7 6 5 7 5 5 6 6 6 6 5
11 11 11 11 8 6 5 3 2 1 1 2 2 3 3 2 3 4 3 3 4 2 1 2 2 1 0 2 2 2 1 1 1 1 4 3 4 7 4 3 6 7 7 8 8 6 7 7 6 6 6 5 5 6
10 11 11 12 10 7 6 4 2 1 2 1 3 3 4 3 3 3 3 2 3 2 1 2 3 2 1 2 1 2 1 3 4 4 3 4 6 4 3 3 5 5 5 6 6 6 7 7 6 6 5 5 6 6
9 7 6 8 11 9 7 4 1 1 1 2 2 1 2 1 3 2 2 3 2 2 1 2 2 2 2 2 2 5 4 5 3 3 3 4 5 2 4 6 6 5 5 6 6 6 6 7 7 6 2 5 6 6
8 2 5 13 13 11 6 1 1 1 1 2 2 1 2 2 4 3 1 2 3 2 1 2 2 5 2 1 3 4 4 3 3 3 2 2 2 2 3 3 3 5 7 7 6 6 6 5 4 3 6 5 5 6
2 3 7 18 15 4 1 2 1 2 3 2 2 1 2 2 2 3 3 1 3 2 1 1 1 3 5 4 3 4 4 3 3 3 3 3 3 4 3 5 5 4 4 5 6 5 5 6 6 6 6 6 4 5
2 4 16 18 5 3 2 0 1 2 3 1 2 2 2 3 3 3 3 2 2 1 2 1 4 4 4 3 4 4 3 3 3 3 3 4 5 5 4 4 5 5 6 8 5 5 5 7 7 5 4 3 5 3
10 6 18 11 2 2 2 1 1 2 2 2 1 2 3 3 2 2 2 2 3 2 2 4 5 4 4 4 4 4 4 4 3 0 3 4 3 2 4 3 4 3 3 4 2 4 4 4 4 5 4 5 4 5
4 6 7 2 2 2 2 2 1 2 1 1 2 1 3 2 3 2 3 3 2 3 3 4 4 4 5 4 3 3 4 5 5 4 4 3 5 4 3 4 4 3 3 5 5 7 9 6 7 5 5 6 7 5
2 5 2 1 2 1 1 2 2 2 1 2 2 2 3 2 3 3 2 2 3 4 4 4 5 8 7 7 8 7 9 8 7 4 6 5 4 4 4 3 4 5 4 5 6 7 9 8 7 5 5 6 5 4
7 2 2 1 2 2 1 1 0 1 1 2 2 2 3 3 3 1 2 3 4 4 3 3 5 5 7 8 4 6 6 7 6 6 7 7 7 6 5 6 3 3 5 8 5 7 7 5 6 6 5 4 4 4
2 2 2 2 2 2 2 1 2 1 1 2 2 3 3 3 1 1 2 3 3 2 1 3 2 4 3 4 4 6 7 5 7 5 5 5 5 8 7 7 4 5 7 8 3 5 5 5 4 4 5 5 5 5
3 2 2 3 2 2 3 2 3 2 3 3 2 3 3 1 0 2 2 3 2 3 4 4 4 4 4 4 4 5 6 5 6 7 7 7 8 6 4 4 6 8 5 5 6 7 5 4 5 5 5 6 8 7
3 3 4 5 3 3 3 3 5 5 3 2 5 2 1 2 1 3 3 1 2 4 4 3 4 4 4 5 5 5 4 4 4 4 7 5 6 6 7 7 8 10 6 9 7 8 7 6 7 11 9 9 9 6
2 3 3 1 2 1 2 3 2 2 3 4 2 1 1 2 3 3 2 4 4 4 3 4 4 5 6 8 4 5 5 4 5 4 1 3 4 5 6 7 9 8 3 6 6 7 7 8 8 10 9 4 6 7
3 2 4 4 3 3 2 1 1 3 3 2 1 1 1 1 3 3 4 3 4 5 5 5 6 6 7 8 6 4 5 3 4 3 3 4 6 6 7 7 7 8 5 6 8 7 8 9 9 10 10 10 8 7
2 2 2 3 2 2 3 4 3 3 3 2 3 3 3 3 3 3 6 5 4 3 5 6 3 4 5 5 6 4 4 3 2 5 6 5 6 4 4 4 4 4 2 2 6 6 8 7 7 8 11 9 8 7
3 3 2 2 3 4 4 5 3 3 3 3 2 2 3 4 4 2 3 3 4 4 4 5 5 3 4 4 6 7 3 5 5 5 4 5 5 3 2 3 1 0 1 2 1 3 7 5 5 3 4 4 3 4
2 3 2 3 3 4 5 4 2 2 3 4 4 4 5 4 3 1 1 2 3 4 4 7 7 4 4 4 4 5 8 5 8 10 10 6 5 4 3 3 2 1 3 5 3 3 2 2 1 2 3 5 6 6
1 3 2 2 3 4 1 2 2 2 2 2 2 2 3 2 2 3 2 2 3 7 4 4 5 8 7 6 6 7 13 10 9 7 8 6 6 5 5 4 3 2 3 4 4 3 5 6 5 5 4 6 5 6
2 2 3 2 3 3 2 1 2 3 2 1 2 1 2 1 2 2 2 1 2 4 7 7 8 8 10 11 9 8 9 6 8 9 9 11 13 10 4 3 4 5 6 5 6 6 7 7 6 5 6 6 6 7
Wind_Direction
282 291 296 295 299 303 305 310 317 325 333 339 343 347 352 354 357 14 277 358 96 181 279 271 322 119 77 87 139 269 34 350 38 66 121 205 145 222 82 121 169 154 131 169 89 91 276 159 94 168 197 183 224 297
283 291 296 296 294 300 302 301 306 316 326 333 339 343 348 352 356 2 326 358 334 163 248 288 272 272 233 187 140 8 166 182 186 93 143 118 118 69 150 191 33 161 176 179 171 210 239 169 195 142 142 145 346 319
284 285 290 290 291 294 298 296 297 305 318 327 334 338 343 347 353 0 277 305 21 34 309 10 352 344 359 197 174 113 278 171 159 171 153 154 121 131 144 230 128 317 158 113 105 214 191 183 184 173 172 186 356 306
285 283 284 285 289 293 294 292 290 297 311 321 328 333 337 340 343 347 282 313 88 111 85 281 344 287 311 297 85 107 135 68 97 81 101 127 158 163 197 174 148 194 132 140 307 73 69 239 200 172 141 14 326 328
288 286 282 281 287 292 292 289 287 291 304 315 322 326 332 336 339 341 209 313 207 117 223 277 299 274 295 88 90 68 92 102 83 54 66 223 158 114 11 74 255 186 172 162 217 192 154 213 177 157 161 17 351 336
293 292 285 281 285 286 286 286 285 289 303 312 317 320 325 335 341 26 2 236 29 72 76 339 302 323 325 97 81 70 72 90 92 128 200 240 243 105 116 196 256 197 178 167 175 148 125 134 144 154 133 53 7 351
293 297 294 288 285 283 280 281 287 294 303 310 314 315 314 322 15 156 197 226 142 32 70 326 336 312 324 62 37 41 34 80 104 122 201 161 234 95 114 190 241 187 171 159 128 115 78 177 177 170 131 90 35 320
293 301 302 296 291 288 286 286 288 297 305 310 311 309 308 309 244 317 273 45 150 96 72 72 276 3 4 24 19 356 50 27 17 151 43 143 22 66 257 248 308 146 144 144 173 178 171 139 134 147 126 99 36 7
285 298 303 299 295 294 288 285 293 301 307 309 309 307 343 39 42 286 105 122 74 128 159 110 167 239 356 17 44 24 49 33 308 114 260 97 345 225 225 196 178 184 176 172 127 120 132 143 160 163 165 126 68 352
287 295 300 297 290 287 283 291 301 310 312 316 3 36 0 269 311 17 356 24 26 346 46 199 134 265 89 5 4 61 21 126 104 262 74 110 254 260 243 215 195 174 153 135 119 153 167 181 180 184 187 168 180 243
297 299 302 295 283 269 272 286 315 325 338 34 27 280 270 319 66 33 352 83 328 295 173 234 188 217 311 116 187 97 168 358 61 272 113 305 284 257 306 218 171 159 154 172 158 174 179 178 181 178 186 196 205 235
295 302 302 294 272 255 247 262 318 19 125 197 231 296 317 31 40 59 286 312 206 235 210 173 221 196 276 99 103 347 127 52 239 252 80 272 256 273 289 204 169 156 153 163 164 169 178 174 173 183 189 195 212 223
277 296 301 298 259 245 221 222 267 320 65 69 43 19 46 328 50 198 205 261 283 229 220 179 153 173 24 57 67 87 116 233 36 62 231 231 275 314 294 185 144 146 147 148 157 168 172 186 182 186 197 209 213 235
250 281 291 296 248 231 203 192 215 53 65 81 95 319 172 221 244 200 197 216 254 218 211 164 96 119 291 71 129 105 253 76 349 290 241 261 266 304 244 154 128 163 168 167 172 175 188 197 207 212 215 204 202 233
252 274 284 284 235 205 181 185 199 82 106 137 102 226 226 257 267 256 259 300 286 291 134 102 78 101 12 105 61 99 156 252 211 230 237 271 302 304 154 123 146 168 183 189 180 185 203 207 208 233 227 215 213 238
227 262 233 212 198 175 162 165 133 105 87 143 173 256 246 353 297 340 337 310 333 337 273 51 109 102 184 140 142 212 164 222 251 225 258 303 314 270 178 147 168 191 200 215 196 201 202 202 211 229 254 225 231 224
188 244 206 189 171 151 142 115 115 102 170 215 254 211 210 245 233 261 276 280 316 45 84 99 150 219 100 181 219 182 205 222 230 265 257 253 250 249 282 286 238 214 195 200 216 211 212 212 192 219 257 262 231 227
242 280 184 154 131 118 41 34 126 119 235 235 230 228 205 240 264 262 241 258 25 5 301 195 132 201 203 189 237 228 216 234 227 245 258 257 250 244 250 279 292 270 233 242 226 217 197 193 205 228 232 250 247 236
245 224 164 144 139 131 128 124 108 189 229 237 261 233 234 251 243 256 267 256 207 239 323 339 240 210 222 216 206 210 213 208 185 216 215 249 256 234 235 252 247 245 226 225 217 220 217 216 218 217 222 197 227 206
252 174 139 129 72 102 92 49 18 120 236 251 268 262 236 235 253 229 228 210 159 147 207 220 216 218 202 223 205 217 204 177 199 107 303 298 254 215 270 261 250 237 218 202 195 239 249 243 232 227 215 205 201 223
164 127 101 73 69 70 112 138 160 211 231 247 264 240 267 273 256 226 241 154 131 208 231 226 234 241 228 245 247 237 208 180 195 182 209 252 268 241 234 236 230 226 192 201 205 228 225 233 251 217 200 219 211 224
93 108 101 53 93 103 143 209 164 183 148 244 301 224 274 274 259 229 145 159 218 224 206 213 238 245 250 252 246 210 224 215 229 225 210 199 252 259 262 226 194 213 181 205 203 222 238 236 236 225 211 231 186 198
103 63 73 73 88 60 255 38 160 189 251 267 316 264 243 245 233 100 257 222 251 236 228 249 261 249 241 256 260 261 232 220 230 225 232 226 231 242 251 262 248 260 280 277 204 228 231 194 203 204 208 181 184 198
101 67 83 117 121 160 132 217 216 238 279 264 234 270 258 233 19 59 258 269 260 300 253 258 282 308 300 270 247 248 248 205 231 235 228 212 229 246 233 241 224 223 228 263 219 231 217 206 209 188 174 185 186 201
92 132 144 170 222 167 188 197 194 188 242 218 232 267 268 69 230 253 245 271 290 282 278 288 279 241 240 273 274 262 244 199 218 228 239 214 237 255 260 249 259 256 249 206 230 227 222 183 183 192 199 211 193 196
101 169 177 178 140 184 211 201 202 209 211 238 230 250 127 142 238 246 235 218 323 272 266 261 268 287 272 222 261 278 275 207 189 215 250 209 213 226 245 254 266 275 212 215 220 215 207 184 199 201 210 192 194 179
149 188 224 287 163 184 261 257 269 237 229 212 243 232 193 230 232 254 250 205 222 255 230 242 232 239 257 280 263 256 259 222 212 221 244 218 224 220 219 238 241 248 189 214 209 214 201 185 194 201 206 178 192 193
225 233 197 191 194 226 280 231 236 230 243 233 117 223 315 284 248 239 225 253 237 269 269 245 241 240 252 260 262 284 298 263 258 272 289 274 248 245 230 229 240 259 241 225 226 221 207 188 191 196 197 202 206 194
245 247 194 187 211 230 225 204 233 238 215 173 161 219 245 233 240 263 302 289 292 288 299 312 301 242 260 260 252 240 221 205 224 280 282 278 292 276 214 220 240 230 219 247 229 209 195 187 193 198 202 200 200 181
259 167 183 207 192 223 238 185 225 233 210 207 204 310 293 268 262 292 287 332 356 347 303 289 293 297 298 317 303 301 225 214 210 200 239 256 256 288 230 221 169 115 95 74 233 107 111 109 114 132 149 158 168 171
174 159 239 207 241 239 226 226 247 222 221 233 203 204 244 269 319 328 321 304 286 311 345 355 341 338 322 324 307 301 300 265 228 229 219 219 251 274 264 268 266 214 195 156 171 246 151 127 171 156 177 202 205 197
201 210 198 243 268 287 335 213 230 243 257 228 260 199 322 19 304 288 268 345 354 2 329 310 316 312 303 282 262 246 243 271 280 260 243 210 218 212 213 212 216 238 237 263 247 200 200 204 195 204 227 239 239 234
207 210 223 264 290 280 259 225 253 282 249 300 350 312 46 172 25 310 314 186 302 315 315 311 305 293 286 281 278 292 292 282 282 281 241 199 198 209 209 236 214 181 199 218 221 218 216 225 234 218 196 207 222 233